TimeMST,TemperatureF,Dew PointF,Humidity,Sea Level PressureIn,VisibilityMPH,Wind Direction,Wind SpeedMPH,Gust SpeedMPH,PrecipitationIn,Events,Conditions,WindDirDegrees,DateUTC
12:53 AM,28.0,19.0,69,30.30,10.0,Calm,Calm,-,N/A,,Clear,0,2013-11-11 07:53:00
1:53 AM,28.9,19.0,67,30.29,10.0,Calm,Calm,-,N/A,,Clear,0,2013-11-11 08:53:00
2:53 AM,26.1,18.0,71,30.31,10.0,Calm,Calm,-,N/A,,Clear,0,2013-11-11 09:53:00
3:53 AM,26.1,18.0,71,30.31,10.0,Calm,Calm,-,N/A,,Clear,0,2013-11-11 10:53:00
4:53 AM,21.9,17.1,82,30.37,10.0,North,3.5,-,N/A,,Clear,10,2013-11-11 11:53:00
5:53 AM,23.0,17.1,78,30.40,10.0,ENE,3.5,-,N/A,,Clear,60,2013-11-11 12:53:00
6:53 AM,19.9,16.0,85,30.45,10.0,East,3.5,-,N/A,,Clear,100,2013-11-11 13:53:00
7:53 AM,30.9,19.9,64,30.45,10.0,Calm,Calm,-,N/A,,Clear,0,2013-11-11 14:53:00
8:53 AM,39.9,21.0,47,30.43,10.0,Calm,Calm,-,N/A,,Clear,0,2013-11-11 15:53:00
9:53 AM,46.9,24.1,41,30.39,10.0,Variable,3.5,-,N/A,,Clear,0,2013-11-11 16:53:00
10:53 AM,52.0,19.9,28,30.37,10.0,Calm,Calm,-,N/A,,Clear,0,2013-11-11 17:53:00
11:53 AM,55.9,19.0,24,30.36,10.0,West,3.5,-,N/A,,Clear,260,2013-11-11 18:53:00
12:53 PM,60.1,14.0,16,30.30,10.0,West,6.9,-,N/A,,Clear,260,2013-11-11 19:53:00
1:53 PM,61.0,15.1,17,30.28,10.0,SW,6.9,-,N/A,,Clear,220,2013-11-11 20:53:00
2:53 PM,61.0,15.1,17,30.28,10.0,SW,5.8,-,N/A,,Clear,230,2013-11-11 21:53:00
3:53 PM,60.1,17.1,19,30.29,10.0,SSW,10.4,-,N/A,,Clear,210,2013-11-11 22:53:00
4:53 PM,55.0,19.9,25,30.34,10.0,SSW,5.8,-,N/A,,Clear,210,2013-11-11 23:53:00
5:53 PM,51.1,19.9,29,30.38,10.0,SW,8.1,-,N/A,,Clear,220,2013-11-12 00:53:00
6:53 PM,43.0,21.9,43,30.45,10.0,North,10.4,-,N/A,,Clear,360,2013-11-12 01:53:00
7:53 PM,36.0,21.0,55,30.45,10.0,North,4.6,-,N/A,,Clear,360,2013-11-12 02:53:00
8:53 PM,37.0,21.0,52,30.43,10.0,North,5.8,-,N/A,,Clear,360,2013-11-12 03:53:00
9:53 PM,32.0,19.9,61,30.43,10.0,East,5.8,-,N/A,,Clear,90,2013-11-12 04:53:00
10:53 PM,33.1,19.9,59,30.42,10.0,Calm,Calm,-,N/A,,Clear,0,2013-11-12 05:53:00
11:53 PM,30.9,19.9,64,30.41,10.0,Calm,Calm,-,N/A,,Clear,0,2013-11-12 06:53:00